User: anonymous   Login
Location: St Andrew
(49.4460°N, 2.5750°W)
Time: 19:23:04
(UTC+01:00)
Language:

Iridium 66 - Orbit

View from above orbital plane
View from above orbital plane
View from above satellite
View from above satellite

Ground track
Ground track

The orbit data is extracted from the following two-line orbital elements,

1 25289U 98021E   17266.26380137  .00000200  00000-0  64380-4 0  9995
2 25289  86.4018 182.7791 0002312  81.5302 278.6156 14.34218808 19067
Epoch (UTC): 23 September 2017 06:19:52
Eccentricity: 0.0002312
inclination: 86.4018°
perigee height: 776 km
apogee height: 779 km
right ascension of ascending node: 182.7791°
argument of perigee: 81.5302°
revolutions per day: 14.34218808
mean anomaly at epoch: 278.6156°
orbit number at epoch: 1906

The dashed part of the orbit path shows where the satellite is in the earth's shadow,  

DLR